Time,TemperatureF,DewpointF,PressureIn,WindDirection,WindDirectionDegrees,WindSpeedMPH,WindSpeedGustMPH,Humidity,HourlyPrecipIn,Conditions,Clouds,dailyrainin,SoftwareType,DateUTC
2013-04-12 00:08:00,56.2,15.0,29.78,West,280,0.0,1.0,20,0.00,,,0.00,weatherlink.com 1.10,2013-04-12 05:08:00,
2013-04-12 00:23:00,55.8,15.0,29.78,West,280,0.0,1.0,20,0.00,,,0.00,weatherlink.com 1.10,2013-04-12 05:23:00,
2013-04-12 00:38:00,55.1,16.0,29.77,West,280,0.0,1.0,21,0.00,,,0.00,weatherlink.com 1.10,2013-04-12 05:38:00,
2013-04-12 00:53:00,54.9,15.0,29.77,West,280,0.0,2.0,21,0.00,,,0.00,weatherlink.com 1.10,2013-04-12 05:53:00,
2013-04-12 01:08:00,56.3,14.0,29.77,West,280,0.0,1.0,19,0.00,,,0.00,weatherlink.com 1.10,2013-04-12 06:08:00,
2013-04-12 01:23:00,55.9,15.0,29.77,West,280,1.0,1.0,20,0.00,,,0.00,weatherlink.com 1.10,2013-04-12 06:23:00,
2013-04-12 01:38:00,55.0,16.0,29.77,West,280,0.0,1.0,21,0.00,,,0.00,weatherlink.com 1.10,2013-04-12 06:38:00,
2013-04-12 01:53:00,53.5,15.0,29.77,West,280,0.0,0.0,22,0.00,,,0.00,weatherlink.com 1.10,2013-04-12 06:53:00,
2013-04-12 02:08:00,52.2,15.0,29.76,West,280,0.0,1.0,23,0.00,,,0.00,weatherlink.com 1.10,2013-04-12 07:08:00,
2013-04-12 02:23:00,51.8,16.0,29.75,West,280,0.0,1.0,24,0.00,,,0.00,weatherlink.com 1.10,2013-04-12 07:23:00,
2013-04-12 02:38:00,53.5,15.0,29.75,West,280,0.0,2.0,22,0.00,,,0.00,weatherlink.com 1.10,2013-04-12 07:38:00,
2013-04-12 02:53:00,54.4,15.0,29.74,West,280,0.0,1.0,21,0.00,,,0.00,weatherlink.com 1.10,2013-04-12 07:53:00,
2013-04-12 03:08:00,54.5,15.0,29.73,West,280,1.0,2.0,21,0.00,,,0.00,weatherlink.com 1.10,2013-04-12 08:08:00,
2013-04-12 03:23:00,53.5,15.0,29.73,West,280,0.0,1.0,22,0.00,,,0.00,weatherlink.com 1.10,2013-04-12 08:23:00,
2013-04-12 03:38:00,51.0,16.0,29.73,West,280,1.0,1.0,25,0.00,,,0.00,weatherlink.com 1.10,2013-04-12 08:38:00,
2013-04-12 03:54:00,51.0,15.0,29.73,West,280,0.0,1.0,24,0.00,,,0.00,weatherlink.com 1.10,2013-04-12 08:54:00,
2013-04-12 04:09:00,51.9,15.0,29.73,West,280,0.0,2.0,23,0.00,,,0.00,weatherlink.com 1.10,2013-04-12 09:09:00,
2013-04-12 04:24:00,52.9,15.0,29.73,West,280,0.0,2.0,22,0.00,,,0.00,weatherlink.com 1.10,2013-04-12 09:24:00,
2013-04-12 04:39:00,53.6,14.0,29.73,West,280,2.0,7.0,21,0.00,,,0.00,weatherlink.com 1.10,2013-04-12 09:39:00,
2013-04-12 04:54:00,52.6,15.0,29.73,West,280,1.0,3.0,22,0.00,,,0.00,weatherlink.com 1.10,2013-04-12 09:54:00,
2013-04-12 05:09:00,52.9,15.0,29.74,West,280,1.0,2.0,22,0.00,,,0.00,weatherlink.com 1.10,2013-04-12 10:09:00,
2013-04-12 05:24:00,52.8,15.0,29.74,West,280,3.0,5.0,22,0.00,,,0.00,weatherlink.com 1.10,2013-04-12 10:24:00,
2013-04-12 05:39:00,53.5,15.0,29.74,West,280,1.0,3.0,22,0.00,,,0.00,weatherlink.com 1.10,2013-04-12 10:39:00,
2013-04-12 05:54:00,53.1,15.0,29.74,West,280,0.0,1.0,22,0.00,,,0.00,weatherlink.com 1.10,2013-04-12 10:54:00,
2013-04-12 06:09:00,53.3,15.0,29.75,West,280,0.0,2.0,22,0.00,,,0.00,weatherlink.com 1.10,2013-04-12 11:09:00,
2013-04-12 06:24:00,53.1,15.0,29.74,West,280,0.0,2.0,22,0.00,,,0.00,weatherlink.com 1.10,2013-04-12 11:24:00,
2013-04-12 06:39:00,52.0,15.0,29.74,West,280,1.0,3.0,23,0.00,,,0.00,weatherlink.com 1.10,2013-04-12 11:39:00,
2013-04-12 06:54:00,52.0,15.0,29.74,West,280,2.0,2.0,23,0.00,,,0.00,weatherlink.com 1.10,2013-04-12 11:54:00,
2013-04-12 07:09:00,51.4,16.0,29.74,West,280,0.0,1.0,24,0.00,,,0.00,weatherlink.com 1.10,2013-04-12 12:09:00,
2013-04-12 07:24:00,52.0,15.0,29.74,West,280,0.0,0.0,23,0.00,,,0.00,weatherlink.com 1.10,2013-04-12 12:24:00,
2013-04-12 07:39:00,50.6,16.0,29.75,West,280,1.0,2.0,25,0.00,,,0.00,weatherlink.com 1.10,2013-04-12 12:39:00,
2013-04-12 07:54:00,52.6,16.0,29.75,West,280,1.0,4.0,23,0.00,,,0.00,weatherlink.com 1.10,2013-04-12 12:54:00,
2013-04-12 08:09:00,53.0,16.0,29.76,West,280,2.0,4.0,23,0.00,,,0.00,weatherlink.com 1.10,2013-04-12 13:09:00,
2013-04-12 08:24:00,53.6,16.0,29.77,West,280,1.0,3.0,23,0.00,,,0.00,weatherlink.com 1.10,2013-04-12 13:24:00,
2013-04-12 08:39:00,54.4,17.0,29.77,West,280,1.0,2.0,23,0.00,,,0.00,weatherlink.com 1.10,2013-04-12 13:39:00,
2013-04-12 08:54:00,56.6,17.0,29.77,West,280,0.0,1.0,21,0.00,,,0.00,weatherlink.com 1.10,2013-04-12 13:54:00,
2013-04-12 09:09:00,59.2,18.0,29.78,West,280,0.0,0.0,20,0.00,,,0.00,weatherlink.com 1.10,2013-04-12 14:09:00,
2013-04-12 09:24:00,60.8,19.0,29.78,West,280,0.0,2.0,20,0.00,,,0.00,weatherlink.com 1.10,2013-04-12 14:24:00,
2013-04-12 09:39:00,63.5,20.0,29.78,West,280,0.0,3.0,19,0.00,,,0.00,weatherlink.com 1.10,2013-04-12 14:39:00,
2013-04-12 09:54:00,66.1,17.0,29.78,West,280,3.0,6.0,15,0.00,,,0.00,weatherlink.com 1.10,2013-04-12 14:54:00,
2013-04-12 10:09:00,67.0,16.0,29.78,West,280,0.0,5.0,14,0.00,,,0.00,weatherlink.com 1.10,2013-04-12 15:09:00,
2013-04-12 10:24:00,68.8,18.0,29.77,West,280,0.0,6.0,14,0.00,,,0.00,weatherlink.com 1.10,2013-04-12 15:24:00,
2013-04-12 10:39:00,69.2,14.0,29.77,West,280,2.0,6.0,12,0.00,,,0.00,weatherlink.com 1.10,2013-04-12 15:39:00,
2013-04-12 10:54:00,69.8,17.0,29.76,West,280,1.0,5.0,13,0.00,,,0.00,weatherlink.com 1.10,2013-04-12 15:54:00,
2013-04-12 11:10:00,70.5,15.0,29.76,West,280,2.0,8.0,12,0.00,,,0.00,weatherlink.com 1.10,2013-04-12 16:10:00,
2013-04-12 11:25:00,72.4,15.0,29.76,West,280,0.0,3.0,11,0.00,,,0.00,weatherlink.com 1.10,2013-04-12 16:25:00,
2013-04-12 11:40:00,72.8,15.0,29.75,West,280,1.0,5.0,11,0.00,,,0.00,weatherlink.com 1.10,2013-04-12 16:40:00,
2013-04-12 11:55:00,73.9,16.0,29.75,SE,138,5.0,9.0,11,0.00,,,0.00,weatherlink.com 1.10,2013-04-12 16:55:00,
2013-04-12 12:10:00,74.5,17.0,29.75,SE,136,4.0,7.0,11,0.00,,,0.00,weatherlink.com 1.10,2013-04-12 17:10:00,
2013-04-12 12:25:00,75.1,15.0,29.74,SE,143,2.0,6.0,10,0.00,,,0.00,weatherlink.com 1.10,2013-04-12 17:25:00,
2013-04-12 12:40:00,74.8,12.0,29.74,SSE,147,1.0,5.0,9,0.00,,,0.00,weatherlink.com 1.10,2013-04-12 17:40:00,
2013-04-12 12:55:00,77.2,14.0,29.73,ESE,121,4.0,12.0,9,0.00,,,0.00,weatherlink.com 1.10,2013-04-12 17:55:00,
2013-04-12 13:25:00,76.8,14.0,29.72,ESE,121,2.0,14.0,9,0.00,,,0.00,weatherlink.com 1.10,2013-04-12 18:25:00,
2013-04-12 14:40:00,77.1,11.0,29.68,SE,128,0.0,16.0,8,0.00,,,0.00,weatherlink.com 1.10,2013-04-12 19:40:00,
2013-04-12 14:55:00,78.1,9.0,29.67,ESE,122,2.0,14.0,7,0.00,,,0.00,weatherlink.com 1.10,2013-04-12 19:55:00,
2013-04-12 15:10:00,77.5,12.0,29.66,SE,138,4.0,12.0,8,0.00,,,0.00,weatherlink.com 1.10,2013-04-12 20:10:00,
2013-04-12 15:25:00,79.6,13.0,29.66,ESE,111,9.0,16.0,8,0.00,,,0.00,weatherlink.com 1.10,2013-04-12 20:25:00,
2013-04-12 15:40:00,77.6,12.0,29.65,SE,129,5.0,10.0,8,0.00,,,0.00,weatherlink.com 1.10,2013-04-12 20:40:00,
2013-04-12 15:55:00,78.7,12.0,29.64,SSE,150,6.0,17.0,8,0.00,,,0.00,weatherlink.com 1.10,2013-04-12 20:55:00,
2013-04-12 16:11:00,79.3,10.0,29.63,SE,124,4.0,12.0,7,0.00,,,0.00,weatherlink.com 1.10,2013-04-12 21:11:00,
2013-04-12 16:26:00,78.2,9.0,29.62,SE,125,0.0,10.0,7,0.00,,,0.00,weatherlink.com 1.10,2013-04-12 21:26:00,
2013-04-12 16:41:00,80.5,14.0,29.62,SSE,156,3.0,13.0,8,0.00,,,0.00,weatherlink.com 1.10,2013-04-12 21:41:00,
2013-04-12 16:56:00,79.6,13.0,29.61,West,260,4.0,14.0,8,0.00,,,0.00,weatherlink.com 1.10,2013-04-12 21:56:00,
2013-04-12 17:11:00,78.9,13.0,29.61,ESE,123,5.0,19.0,8,0.00,,,0.00,weatherlink.com 1.10,2013-04-12 22:11:00,
2013-04-12 17:26:00,79.3,16.0,29.60,SSE,165,7.0,8.0,9,0.00,,,0.00,weatherlink.com 1.10,2013-04-12 22:26:00,
2013-04-12 18:11:00,78.1,9.0,29.59,West,261,0.0,13.0,7,0.00,,,0.00,weatherlink.com 1.10,2013-04-12 23:11:00,
2013-04-12 18:26:00,79.6,13.0,29.59,South,169,5.0,9.0,8,0.00,,,0.00,weatherlink.com 1.10,2013-04-12 23:26:00,
2013-04-12 18:56:00,78.3,9.0,29.59,SSW,194,4.0,7.0,7,0.00,,,0.00,weatherlink.com 1.10,2013-04-12 23:56:00,
2013-04-12 19:11:00,77.7,12.0,29.59,SSW,194,0.0,5.0,8,0.00,,,0.00,weatherlink.com 1.10,2013-04-13 00:11:00,
2013-04-12 19:26:00,76.8,11.0,29.59,SW,224,7.0,9.0,8,0.00,,,0.00,weatherlink.com 1.10,2013-04-13 00:26:00,
2013-04-12 19:41:00,76.4,11.0,29.59,SW,225,0.0,5.0,8,0.00,,,0.00,weatherlink.com 1.10,2013-04-13 00:41:00,
2013-04-12 20:11:00,73.2,24.0,29.59,SE,134,9.0,11.0,16,0.00,,,0.00,weatherlink.com 1.10,2013-04-13 01:11:00,
2013-04-12 20:26:00,70.7,28.0,29.59,ESE,123,7.0,17.0,20,0.00,,,0.00,weatherlink.com 1.10,2013-04-13 01:26:00,
2013-04-12 20:56:00,68.2,33.0,29.59,ESE,110,11.0,15.0,27,0.00,,,0.00,weatherlink.com 1.10,2013-04-13 01:56:00,
2013-04-12 21:11:00,67.4,36.0,29.59,East,80,13.0,21.0,32,0.00,,,0.00,weatherlink.com 1.10,2013-04-13 02:11:00,
2013-04-12 21:26:00,66.7,36.0,29.59,ESE,113,10.0,25.0,32,0.00,,,0.00,weatherlink.com 1.10,2013-04-13 02:26:00,
2013-04-12 21:41:00,66.2,37.0,29.60,ESE,122,10.0,19.0,34,0.00,,,0.00,weatherlink.com 1.10,2013-04-13 02:41:00,
2013-04-12 21:56:00,65.8,37.0,29.60,ESE,122,9.0,25.0,35,0.00,,,0.00,weatherlink.com 1.10,2013-04-13 02:56:00,
2013-04-12 22:26:00,65.2,38.0,29.60,SE,144,7.0,27.0,37,0.00,,,0.00,weatherlink.com 1.10,2013-04-13 03:26:00,
2013-04-12 22:41:00,64.6,38.0,29.60,South,172,8.0,22.0,37,0.00,,,0.00,weatherlink.com 1.10,2013-04-13 03:41:00,
2013-04-12 22:56:00,64.3,37.0,29.60,ESE,115,13.0,24.0,36,0.00,,,0.00,weatherlink.com 1.10,2013-04-13 03:56:00,
2013-04-12 23:11:00,64.0,36.0,29.60,ESE,107,16.0,21.0,35,0.00,,,0.00,weatherlink.com 1.10,2013-04-13 04:11:00,
2013-04-12 23:26:00,63.6,35.0,29.60,ESE,115,10.0,25.0,34,0.00,,,0.00,weatherlink.com 1.10,2013-04-13 04:26:00,
2013-04-12 23:41:00,63.2,34.0,29.61,ESE,117,10.0,25.0,34,0.00,,,0.00,weatherlink.com 1.10,2013-04-13 04:41:00,